Flag for France Weather past 2 weeks in Mulhouse, France

Now
34 °F

Scattered clouds.


Feels Like: 34 °F
Forecast: 32 / 51 °F
Wind: 1 mph from North

Location: Bale-Mulhouse

Current Time: Feb 28, 2015 at 8:18:16 AM

Latest Report: Feb 28, 2015 at 8:00 AM


Visibility: 4 mi

Pressure: 30.18 "Hg

Humidity: 100%

Dew point: 34 °F

Location of MulhouseLocation

Historic Weather in Mulhouse — Graph

°F

Mulhouse temperature yesterday

Maximum temperature yesterday: 43 °F (at 12:00 AM)
Minimum temperature yesterday: 37 °F (at 6:00 AM)
Average temperature yesterday: 40 °F

Past Weeks' High & Low Weather Summary

 TemperatureHumidityPressure
High61 °F (Feb 20, 4:00 PM)100% (Feb 15, 8:00 AM)30.69 "Hg (Feb 15, 8:00 AM)
Low28 °F (Feb 13, 7:00 AM)18% (Feb 20, 5:00 PM)29.56 "Hg (Feb 21, 6:30 AM)
Average38 °F80%30.03 "Hg
* Reported Feb 13 7:00 AM — Feb 28 7:00 AM, Mulhouse, Weather by CustomWeather, © 2015

Note: Actual official high and low records may vary slightly from our data, if they occured in-between our weather recording intervals... More about our weather records

Advertising

Mulhouse weather history for previous 24 hours

 ConditionsComfort  
Time TempWeatherWind HumidityBarometerVisibility
7:00 AM
Sat, Feb 28
36 °FPartly cloudy.2 mph93%30.15 "Hg4 mi
6:30 AM36 °FPartly cloudy.No wind93%30.15 "Hg5 mi
6:00 AM36 °FPartly cloudy.No wind93%30.15 "Hg5 mi
5:30 AM36 °FPartly cloudy.No wind93%30.15 "Hg5 mi
5:00 AM36 °FPassing clouds.No wind93%30.15 "Hg5 mi
4:30 AM36 °FPassing clouds.1 mph93%30.15 "Hg4 mi
4:00 AM36 °FMostly cloudy.No wind93%30.15 "HgN/A
3:30 AM36 °FMostly cloudy.No wind93%30.15 "HgN/A
3:00 AM36 °FMostly cloudy.5 mph93%30.15 "HgN/A
2:30 AM36 °FPassing clouds.5 mph93%30.15 "HgN/A
2:00 AM36 °FLight rain. Overcast.7 mph93%30.15 "HgN/A
1:30 AM36 °FLight rain. Passing clouds.6 mph93%30.18 "HgN/A
1:00 AM36 °FLight rain. Passing clouds.6 mph93%30.18 "HgN/A
12:30 AM37 °FLight rain. Partly cloudy.7 mph93%30.18 "HgN/A
12:00 AM37 °FLight rain. Partly cloudy.9 mph87%30.18 "HgN/A
11:30 PM
Fri, Feb 27
37 °FLight rain. Partly cloudy.9 mph87%30.18 "HgN/A
11:00 PM37 °FLight rain. Partly cloudy.8 mph93%30.18 "HgN/A
10:30 PM37 °FLight rain. Partly cloudy.10 mph93%30.15 "HgN/A
10:00 PM37 °FLight rain. Partly cloudy.10 mph93%30.15 "HgN/A
9:30 PM37 °FLight rain. Partly cloudy.10 mph93%30.15 "HgN/A
9:00 PM37 °FLight rain. Partly cloudy.12 mph93%30.15 "HgN/A
8:30 PM37 °FLight rain. Passing clouds.12 mph93%30.15 "HgN/A
8:00 PM39 °FLight rain. Passing clouds.9 mph87%30.12 "HgN/A
7:30 PM39 °FLight rain. Passing clouds.8 mph87%30.12 "HgN/A
7:00 PM39 °FLight rain. Passing clouds.8 mph93%30.09 "HgN/A
6:30 PM39 °FLight rain. Mostly cloudy.10 mph93%30.09 "HgN/A
6:00 PM39 °FLight rain. Partly sunny.10 mph93%30.07 "HgN/A
5:30 PM39 °FLight rain. Mostly cloudy.12 mph93%30.07 "HgN/A
5:00 PM41 °FLight rain. Mostly cloudy.13 mph87%30.04 "HgN/A
4:30 PM41 °FLight rain. Mostly cloudy.12 mph87%30.04 "HgN/A
4:00 PM41 °FLight rain. Broken clouds.13 mph87%30.01 "Hg6 mi
3:30 PM41 °FLight rain. Broken clouds.10 mph87%30.01 "HgN/A
3:00 PM41 °FLight rain. Broken clouds.9 mph87%29.98 "HgN/A
2:30 PM41 °FLight rain. Broken clouds.9 mph87%29.98 "HgN/A
2:00 PM41 °FLight rain. Broken clouds.10 mph87%29.95 "HgN/A
1:30 PM41 °FLight rain. Broken clouds.13 mph87%29.95 "HgN/A
1:00 PM41 °FLight rain. Partly sunny.12 mph93%29.92 "HgN/A
12:30 PM43 °FLight rain. Broken clouds.12 mph87%29.92 "HgN/A
12:00 PM43 °FLight rain. Broken clouds.14 mph87%29.89 "HgN/A
11:30 AM43 °FLight rain. More clouds than sun.9 mph87%29.89 "Hg6 mi
11:00 AM43 °FLight rain. Partly sunny.8 mph93%29.86 "Hg4 mi
10:30 AM41 °FLight rain. Fog.3 mph93%29.86 "Hg3 mi
10:00 AM39 °FLight rain. Fog.7 mph93%29.83 "Hg3 mi
9:30 AM39 °FLight rain. Fog.7 mph93%29.83 "Hg3 mi
9:00 AM37 °FLight rain. Partly sunny.3 mph100%29.80 "Hg3 mi
8:30 AM37 °FLight rain. Partly sunny.3 mph100%29.80 "Hg3 mi
Weather by CustomWeather, © 2015

See weather overviewHow to use our weather pages